Regional Weather Roundup
Issued by NWS

Home | Current Version | Previous Version | Text Only | Print | Product List | Glossary On
Versions: 1 2 3 4 5 6 7 8 9 10 11 12 13 14 15 16 17 18 19 20 21 22 23 24 25 26 27 28 29 30 31 32 33 34 35 36 37 38 39 40 41 42 43 44 45 46 47 48 49 50
000
ASUS44 KJAN 251410
RWRMS

MISSISSIPPI HOURLY WEATHER ROUNDUP
NATIONAL WEATHER SERVICE JACKSON MS
900 AM CDT SAT OCT 25 2014

NOTE: "FAIR: INDICATES FEW OR NO CLOUDS BELOW 12,000 FEET WITH NO
SIGNIFICANT WEATHER AND/OR OBSTRUCTIONS TO VISIBILITY.

MSZ001>002-007>008-010>013-018>021-025>028-034>036-251500-
NORTHWEST MISSISSIPPI

CITY           SKY/WX    TMP DP  RH WIND       PRES   REMARKS
CLARKSDALE     FAIR      63  57  82 SW6       30.15R
CLEVELAND      FAIR      61  58  90 W6        30.15R
GREENWOOD      SUNNY     58  54  86 S5        30.15R
GREENVILLE     SUNNY     63  56  78 W8        30.14R
GRENADA          N/A    N/A N/A N/A MISG        N/A
OLIVE BRANCH   SUNNY     59  59 100 SW7       30.11S
OXFORD         FAIR      55  55 100 CALM      30.15R
TUNICA         SUNNY     61  57  88 S6        30.13S
$$

MSZ003>006-009-014>017-022>024-029>033-037>039-251500-
NORTHEAST MISSISSIPPI

CITY           SKY/WX    TMP DP  RH WIND       PRES   REMARKS
COLUMBUS AFB   NOT AVBL
CORINTH        FAIR      55  52  88 CALM      30.12R
GOLDN TRIANGLE SUNNY     57  48  72 CALM      30.14R
STARKVILLE     FAIR      55  52  88 CALM      30.14S
TUPELO         SUNNY     58  53  84 W5        30.12R
$$

MSZ040-058-251500-
CENTRAL MISSISSIPPI

CITY           SKY/WX    TMP DP  RH WIND       PRES   REMARKS
JACKSON INTL   SUNNY     57  52  83 CALM      30.17R
JACKSON HAWKNS SUNNY     59  52  77 CALM      30.17R
MERIDIAN KEY   SUNNY     54  48  80 CALM      30.16R
MERIDIAN NAS   SUNNY     58  51  78 NW5       30.16R
RAYMOND        FAIR      55  50  82 CALM      30.17R
VICKSBURG      SUNNY     58  53  84 S3        30.17R
$$

MSZ059>079-251500-
SOUTH MISSISSIPPI

CITY           SKY/WX    TMP DP  RH WIND       PRES   REMARKS
BROOKHAVEN     FAIR      57  52  82 CALM      30.18R
COLUMBIA         N/A    N/A N/A N/A MISG        N/A
HATTIESBURG    SUNNY     56  50  80 NW3       30.17R
MCCOMB         SUNNY     62  47  57 N6        30.17R
NATCHEZ        SUNNY     54  52  94 CALM      30.18R
PINE BELT      SUNNY     61  52  72 CALM      30.17R
$$

MSZ080>082-251500-
COASTAL MISSISSIPPI

CITY           SKY/WX    TMP DP  RH WIND       PRES   REMARKS
BAY ST LOUIS   SUNNY     55  48  76 CALM      30.16R
BILOXI         NOT AVBL
PASCAGOULA     SUNNY     58  51  78 N6        30.14R
GULFPORT       SUNNY     60  50  69 N5        30.15R
$$



USA.gov is the U.S. government's official web portal to all federal, state and local government web resources and services.